Tracking 35275 objects as of 8-Sep-2026
HD Live streaming from Space Station
objects crossing your sky now

FREGAT DEB


FREGAT DEB is no longer on orbit


NORAD ID: 45617
Int'l Code: 2011-037L
Launch date: July 18, 2011
Source: Commonwealth of Independent States (former USSR) (CIS)
Launch site: TYURATAM MISSILE AND SPACE COMPLEX (TTMTR)
Decay date: 2022-03-23

Note: This is SATELLITE DEBRIS
Your satellite tracking list
Your tracking list is empty




NASA's NSSDC Master Catalog

Two Line Element Set (TLE):
1 45617U 11037L   22077.34381447  .04678320  00000-0  80116-1 0  9994
2 45617  51.5512 185.4662 0285837  99.9686 263.3614 15.13155925 82974
Source of the keplerian elements: AFSPC